Terminal Aerodrome Forecast
Issued by NWS

Home | Current Version | Previous Version | Text Only | Print | Product List | Glossary On
Versions: 1 2 3 4 5 6 7 8 9 10 11 12 13 14 15 16 17 18 19 20 21 22 23 24 25 26 27 28 29 30 31 32 33 34 35 36 37 38 39 40
000
FTUS46 KOTX 181309 AAA
TAFMWH
TAF AMD
KMWH 181309Z 1813/1912 14003KT 2SM BR OVC002
      TEMPO 1813/1815 1SM BR
     FM182100 12005KT P6SM BKN030 OVC200
     FM190400 05005KT P6SM -RA OVC025=

USA.gov is the U.S. government's official web portal to all federal, state and local government web resources and services.